Location: Carr Mill
(33.2054°N, 85.9439°W)
Time: 00:39:01
(UTC+00:00)

STARLINK-2732 - Pass Details

Date: 30 October 2021
Orbit: 545 x 549 km, 53.1° (Epoch: 07 December)

Event Time Altitude Azimuth Distance (km) Brightness Sun altitude
Exits shadow 10:44:34 20° 326° (NNW) 1,314 5.2 -16.4°
Drops below altitude 10° 10:47:36 10° 14° (NNE) 1,819 6.4 -15.8°
Sets 10:50:21 0° 32° (NNE) 2,715 7.5 -15.2°
